Year,Month,Day,Hour,Minute,Value (Times are PST for temperature in C)
2012,03,04,00,00,5.70
2012,03,04,00,01,5.70
2012,03,04,00,02,5.60
2012,03,04,00,03,5.60
2012,03,04,00,04,5.60
2012,03,04,00,05,5.60
2012,03,04,00,06,5.60
2012,03,04,00,07,5.60
2012,03,04,00,08,5.60
2012,03,04,00,09,5.60
2012,03,04,00,10,5.60
2012,03,04,00,11,5.60
2012,03,04,00,12,5.60
2012,03,04,00,13,5.60
2012,03,04,00,14,5.50
2012,03,04,00,15,5.50
2012,03,04,00,16,5.50
2012,03,04,00,17,5.50
2012,03,04,00,18,5.60
2012,03,04,00,19,5.60
2012,03,04,00,20,5.50
2012,03,04,00,21,5.50
2012,03,04,00,22,5.40
2012,03,04,00,23,5.40
2012,03,04,00,24,5.40
2012,03,04,00,25,5.40
2012,03,04,00,26,5.40
2012,03,04,00,27,5.40
2012,03,04,00,28,5.40
2012,03,04,00,29,5.30
2012,03,04,00,30,5.30
2012,03,04,00,31,5.30
2012,03,04,00,32,5.30
2012,03,04,00,33,5.40
2012,03,04,00,34,5.50
2012,03,04,00,35,5.60
2012,03,04,00,36,5.60
2012,03,04,00,37,5.70
2012,03,04,00,38,5.80
2012,03,04,00,39,5.80
2012,03,04,00,40,5.80
2012,03,04,00,41,5.80
2012,03,04,00,42,5.80
2012,03,04,00,43,5.80
2012,03,04,00,44,5.80
2012,03,04,00,45,5.70
2012,03,04,00,46,5.70
2012,03,04,00,47,5.60
2012,03,04,00,48,5.50
2012,03,04,00,49,5.50
2012,03,04,00,50,5.50
2012,03,04,00,51,5.60
2012,03,04,00,52,5.60
2012,03,04,00,53,5.50
2012,03,04,00,54,5.40
2012,03,04,00,55,5.30
2012,03,04,00,56,5.20
2012,03,04,00,57,5.10
2012,03,04,00,58,5.10
2012,03,04,00,59,5.00
2012,03,04,01,00,4.90
2012,03,04,01,01,4.90
2012,03,04,01,02,4.80
2012,03,04,01,03,4.80
2012,03,04,01,04,4.80
2012,03,04,01,05,4.80
2012,03,04,01,06,4.80
2012,03,04,01,07,4.80
2012,03,04,01,08,4.80
2012,03,04,01,09,4.80
2012,03,04,01,10,4.80
2012,03,04,01,11,4.80
2012,03,04,01,12,4.80
2012,03,04,01,13,4.80
2012,03,04,01,14,4.80
2012,03,04,01,15,4.80
2012,03,04,01,16,4.80
2012,03,04,01,17,4.80
2012,03,04,01,18,4.80
2012,03,04,01,19,4.80
2012,03,04,01,20,4.70
2012,03,04,01,21,4.70
2012,03,04,01,22,4.60
2012,03,04,01,23,4.60
2012,03,04,01,24,4.60
2012,03,04,01,25,4.50
2012,03,04,01,26,4.50
2012,03,04,01,27,4.40
2012,03,04,01,28,4.40
2012,03,04,01,29,4.40
2012,03,04,01,30,4.30
2012,03,04,01,31,4.30
2012,03,04,01,32,4.30
2012,03,04,01,33,4.20
2012,03,04,01,34,4.20
2012,03,04,01,35,4.20
2012,03,04,01,36,4.10
2012,03,04,01,37,4.10
2012,03,04,01,38,4.10
2012,03,04,01,39,4.10
2012,03,04,01,40,4.00
2012,03,04,01,41,4.00
2012,03,04,01,42,4.00
2012,03,04,01,43,4.00
2012,03,04,01,44,4.00
2012,03,04,01,45,3.90
2012,03,04,01,46,3.90
2012,03,04,01,47,3.90
2012,03,04,01,48,3.90
2012,03,04,01,49,3.90
2012,03,04,01,50,3.90
2012,03,04,01,51,3.90
2012,03,04,01,52,3.90
2012,03,04,01,53,3.90
2012,03,04,01,54,3.90
2012,03,04,01,55,3.80
2012,03,04,01,56,3.80
2012,03,04,01,57,3.80
2012,03,04,01,58,3.80
2012,03,04,01,59,3.80
2012,03,04,02,00,3.80
2012,03,04,02,01,3.80
2012,03,04,02,02,3.80
2012,03,04,02,03,3.80
2012,03,04,02,04,3.80
2012,03,04,02,05,3.80
2012,03,04,02,06,3.80
2012,03,04,02,07,3.80
2012,03,04,02,08,3.80
2012,03,04,02,09,3.80
2012,03,04,02,10,3.80
2012,03,04,02,11,3.80
2012,03,04,02,12,3.80
2012,03,04,02,13,3.70
2012,03,04,02,14,3.70
2012,03,04,02,15,3.70
2012,03,04,02,16,3.70
2012,03,04,02,17,3.70
2012,03,04,02,18,3.70
2012,03,04,02,19,3.60
2012,03,04,02,20,3.60
2012,03,04,02,21,3.60
2012,03,04,02,22,3.60
2012,03,04,02,23,3.70
2012,03,04,02,24,3.70
2012,03,04,02,25,3.70
2012,03,04,02,26,3.70
2012,03,04,02,27,3.70
2012,03,04,02,28,3.70
2012,03,04,02,29,3.70
2012,03,04,02,30,3.80
2012,03,04,02,31,3.80
2012,03,04,02,32,3.80
2012,03,04,02,33,3.90
2012,03,04,02,34,3.90
2012,03,04,02,35,3.90
2012,03,04,02,36,4.00
2012,03,04,02,37,4.10
2012,03,04,02,38,4.20
2012,03,04,02,39,4.20
2012,03,04,02,40,4.20
2012,03,04,02,41,4.30
2012,03,04,02,42,4.30
2012,03,04,02,43,4.30
2012,03,04,02,44,4.30
2012,03,04,02,45,4.30
2012,03,04,02,46,4.30
2012,03,04,02,47,4.40
2012,03,04,02,48,4.40
2012,03,04,02,49,4.40
2012,03,04,02,50,4.50
2012,03,04,02,51,4.50
2012,03,04,02,52,4.50
2012,03,04,02,53,4.50
2012,03,04,02,54,4.60
2012,03,04,02,55,4.60
2012,03,04,02,56,4.60
2012,03,04,02,57,4.60
2012,03,04,02,58,4.70
2012,03,04,02,59,4.70
2012,03,04,03,00,4.70
2012,03,04,03,01,4.80
2012,03,04,03,02,4.80
2012,03,04,03,03,4.90
2012,03,04,03,04,4.90
2012,03,04,03,05,5.00
2012,03,04,03,06,5.00
2012,03,04,03,07,5.10
2012,03,04,03,08,5.10
2012,03,04,03,09,5.10
2012,03,04,03,10,5.10
2012,03,04,03,11,5.10
2012,03,04,03,12,5.10
2012,03,04,03,13,5.20
2012,03,04,03,14,5.20
2012,03,04,03,15,5.30
2012,03,04,03,16,5.30
2012,03,04,03,17,5.40
2012,03,04,03,18,5.40
2012,03,04,03,19,5.40
2012,03,04,03,20,5.40
2012,03,04,03,21,5.40
2012,03,04,03,22,5.40
2012,03,04,03,23,5.40
2012,03,04,03,24,5.40
2012,03,04,03,25,5.40
2012,03,04,03,26,5.40
2012,03,04,03,27,5.50
2012,03,04,03,28,5.50
2012,03,04,03,29,5.50
2012,03,04,03,30,5.40
2012,03,04,03,31,5.40
2012,03,04,03,32,5.40
2012,03,04,03,33,5.40
2012,03,04,03,34,5.40
2012,03,04,03,35,5.40
2012,03,04,03,36,5.40
2012,03,04,03,37,5.40
2012,03,04,03,38,5.40
2012,03,04,03,39,5.40
2012,03,04,03,40,5.50
2012,03,04,03,41,5.50
2012,03,04,03,42,5.60
2012,03,04,03,43,5.60
2012,03,04,03,44,5.60
2012,03,04,03,45,5.60
2012,03,04,03,46,5.60
2012,03,04,03,47,5.60
2012,03,04,03,48,5.60
2012,03,04,03,49,5.60
2012,03,04,03,50,5.60
2012,03,04,03,51,5.70
2012,03,04,03,52,5.70
2012,03,04,03,53,5.70
2012,03,04,03,54,5.70
2012,03,04,03,55,5.70
2012,03,04,03,56,5.80
2012,03,04,03,57,5.80
2012,03,04,03,58,5.80
2012,03,04,03,59,5.80
2012,03,04,04,00,5.80
2012,03,04,04,01,5.80
2012,03,04,04,02,5.80
2012,03,04,04,03,5.80
2012,03,04,04,04,5.80
2012,03,04,04,05,5.80
2012,03,04,04,06,5.80
2012,03,04,04,07,5.80
2012,03,04,04,08,5.90
2012,03,04,04,09,5.90
2012,03,04,04,10,5.90
2012,03,04,04,11,5.90
2012,03,04,04,12,5.90
2012,03,04,04,13,5.90
2012,03,04,04,14,5.90
2012,03,04,04,15,5.90
2012,03,04,04,16,5.80
2012,03,04,04,17,5.80
2012,03,04,04,18,5.80
2012,03,04,04,19,5.80
2012,03,04,04,20,5.80
2012,03,04,04,21,5.80
2012,03,04,04,22,5.80
2012,03,04,04,23,5.80
2012,03,04,04,24,5.80
2012,03,04,04,25,5.80
2012,03,04,04,26,5.80
2012,03,04,04,27,5.80
2012,03,04,04,28,5.80
2012,03,04,04,29,5.80
2012,03,04,04,30,5.80
2012,03,04,04,31,5.80
2012,03,04,04,32,5.80
2012,03,04,04,33,5.80
2012,03,04,04,34,5.80
2012,03,04,04,35,5.80
2012,03,04,04,36,5.80
2012,03,04,04,37,5.80
2012,03,04,04,38,5.80
2012,03,04,04,39,5.80
2012,03,04,04,40,5.80
2012,03,04,04,41,5.80
2012,03,04,04,42,5.80
2012,03,04,04,43,5.80
2012,03,04,04,44,5.80
2012,03,04,04,45,5.80
2012,03,04,04,46,5.80
2012,03,04,04,47,5.70
2012,03,04,04,48,5.70
2012,03,04,04,49,5.80
2012,03,04,04,50,5.70
2012,03,04,04,51,5.70
2012,03,04,04,52,5.70
2012,03,04,04,53,5.70
2012,03,04,04,54,5.70
2012,03,04,04,55,5.70
2012,03,04,04,56,5.70
2012,03,04,04,57,5.70
2012,03,04,04,58,5.70
2012,03,04,04,59,5.70
2012,03,04,05,00,5.70
2012,03,04,05,01,5.70
2012,03,04,05,02,5.70
2012,03,04,05,03,5.70
2012,03,04,05,04,5.70
2012,03,04,05,05,5.70
2012,03,04,05,06,5.70
2012,03,04,05,07,5.70
2012,03,04,05,08,5.70
2012,03,04,05,09,5.70
2012,03,04,05,10,5.70
2012,03,04,05,11,5.70
2012,03,04,05,12,5.70
2012,03,04,05,13,5.70
2012,03,04,05,14,5.80
2012,03,04,05,15,5.80
2012,03,04,05,16,5.80
2012,03,04,05,17,5.80
2012,03,04,05,18,5.90
2012,03,04,05,19,5.90
2012,03,04,05,20,6.00
2012,03,04,05,21,6.10
2012,03,04,05,22,6.20
2012,03,04,05,23,6.40
2012,03,04,05,24,6.60
2012,03,04,05,25,6.80
2012,03,04,05,26,7.00
2012,03,04,05,27,7.20
2012,03,04,05,28,7.30
2012,03,04,05,29,7.50
2012,03,04,05,30,7.60
2012,03,04,05,31,7.70
2012,03,04,05,32,7.80
2012,03,04,05,33,8.00
2012,03,04,05,34,8.10
2012,03,04,05,35,8.30
2012,03,04,05,36,8.40
2012,03,04,05,37,8.50
2012,03,04,05,38,8.60
2012,03,04,05,39,8.70
2012,03,04,05,40,8.70
2012,03,04,05,41,8.80
2012,03,04,05,42,8.80
2012,03,04,05,43,8.80
2012,03,04,05,44,8.80
2012,03,04,05,45,8.80
2012,03,04,05,46,8.80
2012,03,04,05,47,8.90
2012,03,04,05,48,8.90
2012,03,04,05,49,8.90
2012,03,04,05,50,8.90
2012,03,04,05,51,8.90
2012,03,04,05,52,8.90
2012,03,04,05,53,8.90
2012,03,04,05,54,8.90
2012,03,04,05,55,8.90
2012,03,04,05,56,8.90
2012,03,04,05,57,8.90
2012,03,04,05,58,8.90
2012,03,04,05,59,8.90
2012,03,04,06,00,8.90
2012,03,04,06,01,8.80
2012,03,04,06,02,8.80
2012,03,04,06,03,8.80
2012,03,04,06,04,8.80
2012,03,04,06,05,8.80
2012,03,04,06,06,8.80
2012,03,04,06,07,8.80
2012,03,04,06,08,8.80
2012,03,04,06,09,8.80
2012,03,04,06,10,8.80
2012,03,04,06,11,8.80
2012,03,04,06,12,8.80
2012,03,04,06,13,8.80
2012,03,04,06,14,8.80
2012,03,04,06,15,8.80
2012,03,04,06,16,8.80
2012,03,04,06,17,8.80
2012,03,04,06,18,8.80
2012,03,04,06,19,8.80
2012,03,04,06,20,8.80
2012,03,04,06,21,8.80
2012,03,04,06,22,8.80
2012,03,04,06,23,8.80
2012,03,04,06,24,8.80
2012,03,04,06,25,8.80
2012,03,04,06,26,8.80
2012,03,04,06,27,8.80
2012,03,04,06,28,8.80
2012,03,04,06,29,8.80
2012,03,04,06,30,8.80
2012,03,04,06,31,8.80
2012,03,04,06,32,8.80
2012,03,04,06,33,8.80
2012,03,04,06,34,8.80
2012,03,04,06,35,8.80
2012,03,04,06,36,8.80
2012,03,04,06,37,8.80
2012,03,04,06,38,8.80
2012,03,04,06,39,8.80
2012,03,04,06,40,8.80
2012,03,04,06,41,8.80
2012,03,04,06,42,8.80
2012,03,04,06,43,8.80
2012,03,04,06,44,8.80
2012,03,04,06,45,8.80
2012,03,04,06,46,8.80
2012,03,04,06,47,8.80
2012,03,04,06,48,8.80
2012,03,04,06,49,8.80
2012,03,04,06,50,8.80
2012,03,04,06,51,8.70
2012,03,04,06,52,8.70
2012,03,04,06,53,8.70
2012,03,04,06,54,8.70
2012,03,04,06,55,8.70
2012,03,04,06,56,8.70
2012,03,04,06,57,8.70
2012,03,04,06,58,8.70
2012,03,04,06,59,8.70
2012,03,04,07,00,8.70
2012,03,04,07,01,8.70
2012,03,04,07,02,8.70
2012,03,04,07,03,8.80
2012,03,04,07,04,8.80
2012,03,04,07,05,8.80
2012,03,04,07,06,8.80
2012,03,04,07,07,8.80
2012,03,04,07,08,8.80
2012,03,04,07,09,8.80
2012,03,04,07,10,8.80
2012,03,04,07,11,8.80
2012,03,04,07,12,8.80
2012,03,04,07,13,8.80
2012,03,04,07,14,8.80
2012,03,04,07,15,8.80
2012,03,04,07,16,8.80
2012,03,04,07,17,8.80
2012,03,04,07,18,8.80
2012,03,04,07,19,8.80
2012,03,04,07,20,8.80
2012,03,04,07,21,8.80
2012,03,04,07,22,8.70
2012,03,04,07,23,8.70
2012,03,04,07,24,8.70
2012,03,04,07,25,8.70
2012,03,04,07,26,8.80
2012,03,04,07,27,8.80
2012,03,04,07,28,8.80
2012,03,04,07,29,8.80
2012,03,04,07,30,8.80
2012,03,04,07,31,8.80
2012,03,04,07,32,8.80
2012,03,04,07,33,8.90
2012,03,04,07,34,8.90
2012,03,04,07,35,8.90
2012,03,04,07,36,8.90
2012,03,04,07,37,8.90
2012,03,04,07,38,8.90
2012,03,04,07,39,8.90
2012,03,04,07,40,8.90
2012,03,04,07,41,9.00
2012,03,04,07,42,9.00
2012,03,04,07,43,9.00
2012,03,04,07,44,9.00
2012,03,04,07,45,9.00
2012,03,04,07,46,9.10
2012,03,04,07,47,9.10
2012,03,04,07,48,9.10
2012,03,04,07,49,9.10
2012,03,04,07,50,9.10
2012,03,04,07,51,9.10
2012,03,04,07,52,9.10
2012,03,04,07,53,9.20
2012,03,04,07,54,9.20
2012,03,04,07,55,9.20
2012,03,04,07,56,9.20
2012,03,04,07,57,9.20
2012,03,04,07,58,9.20
2012,03,04,07,59,9.20
2012,03,04,08,00,9.30
2012,03,04,08,01,9.30
2012,03,04,08,02,9.20
2012,03,04,08,03,9.20
2012,03,04,08,04,9.20
2012,03,04,08,05,9.20
2012,03,04,08,06,9.20
2012,03,04,08,07,9.20
2012,03,04,08,08,9.20
2012,03,04,08,09,9.20
2012,03,04,08,10,9.30
2012,03,04,08,11,9.30
2012,03,04,08,12,9.30
2012,03,04,08,13,9.20
2012,03,04,08,14,9.20
2012,03,04,08,15,9.30
2012,03,04,08,16,9.30
2012,03,04,08,17,9.30
2012,03,04,08,18,9.30
2012,03,04,08,19,9.30
2012,03,04,08,20,9.30
2012,03,04,08,21,9.30
2012,03,04,08,22,9.30
2012,03,04,08,23,9.30
2012,03,04,08,24,9.30
2012,03,04,08,25,9.40
2012,03,04,08,26,9.40
2012,03,04,08,27,9.40
2012,03,04,08,28,9.40
2012,03,04,08,29,9.40
2012,03,04,08,30,9.50
2012,03,04,08,31,9.50
2012,03,04,08,32,9.50
2012,03,04,08,33,9.60
2012,03,04,08,34,9.60
2012,03,04,08,35,9.60
2012,03,04,08,36,9.60
2012,03,04,08,37,9.60
2012,03,04,08,38,9.60
2012,03,04,08,39,9.60
2012,03,04,08,40,9.60
2012,03,04,08,41,9.60
2012,03,04,08,42,9.60
2012,03,04,08,43,9.70
2012,03,04,08,44,9.70
2012,03,04,08,45,9.70
2012,03,04,08,46,9.70
2012,03,04,08,47,9.70
2012,03,04,08,48,9.70
2012,03,04,08,49,9.70
2012,03,04,08,50,9.70
2012,03,04,08,51,9.70
2012,03,04,08,52,9.70
2012,03,04,08,53,9.70
2012,03,04,08,54,9.70
2012,03,04,08,55,9.70
2012,03,04,08,56,9.70
2012,03,04,08,57,9.70
2012,03,04,08,58,9.70
2012,03,04,08,59,9.80
2012,03,04,09,00,9.80
2012,03,04,09,01,9.80
2012,03,04,09,02,9.80
2012,03,04,09,03,9.80
2012,03,04,09,04,9.80
2012,03,04,09,05,9.80
2012,03,04,09,06,9.80
2012,03,04,09,07,9.80
2012,03,04,09,08,9.80
2012,03,04,09,09,9.80
2012,03,04,09,10,9.80
2012,03,04,09,11,9.80
2012,03,04,09,12,9.80
2012,03,04,09,13,9.80
2012,03,04,09,14,9.80
2012,03,04,09,15,9.80
2012,03,04,09,16,9.80
2012,03,04,09,17,9.80
2012,03,04,09,18,9.80
2012,03,04,09,19,9.80
2012,03,04,09,20,9.80
2012,03,04,09,21,9.80
2012,03,04,09,22,9.80
2012,03,04,09,23,9.80
2012,03,04,09,24,9.80
2012,03,04,09,25,9.80
2012,03,04,09,26,9.80
2012,03,04,09,27,9.90
2012,03,04,09,28,9.90
2012,03,04,09,29,9.90
2012,03,04,09,30,9.90
2012,03,04,09,31,9.90
2012,03,04,09,32,9.90
2012,03,04,09,33,9.90
2012,03,04,09,34,9.90
2012,03,04,09,35,9.90
2012,03,04,09,36,9.90
2012,03,04,09,37,9.90
2012,03,04,09,38,9.90
2012,03,04,09,39,10.00
2012,03,04,09,40,10.00
2012,03,04,09,41,10.10
2012,03,04,09,42,10.10
2012,03,04,09,43,10.20
2012,03,04,09,44,10.20
2012,03,04,09,45,10.20
2012,03,04,09,46,10.30
2012,03,04,09,47,10.30
2012,03,04,09,48,10.40
2012,03,04,09,49,10.40
2012,03,04,09,50,10.50
2012,03,04,09,51,10.60
2012,03,04,09,52,10.60
2012,03,04,09,53,10.60
2012,03,04,09,54,10.60
2012,03,04,09,55,10.60
2012,03,04,09,56,10.50
2012,03,04,09,57,10.50
2012,03,04,09,58,10.40
2012,03,04,09,59,10.40
2012,03,04,10,00,10.40
2012,03,04,10,01,10.40
2012,03,04,10,02,10.40
2012,03,04,10,03,10.40
2012,03,04,10,04,10.40
2012,03,04,10,05,10.40
2012,03,04,10,06,10.40
2012,03,04,10,07,10.50
2012,03,04,10,08,10.50
2012,03,04,10,09,10.50
2012,03,04,10,10,10.50
2012,03,04,10,11,10.50
2012,03,04,10,12,10.50
2012,03,04,10,13,10.50
2012,03,04,10,14,10.50
2012,03,04,10,15,10.60
2012,03,04,10,16,10.60
2012,03,04,10,17,10.60
2012,03,04,10,18,10.70
2012,03,04,10,19,10.70
2012,03,04,10,20,10.70
2012,03,04,10,21,10.70
2012,03,04,10,22,10.70
2012,03,04,10,23,10.70
2012,03,04,10,24,10.70
2012,03,04,10,25,10.70
2012,03,04,10,26,10.70
2012,03,04,10,27,10.70
2012,03,04,10,28,10.70
2012,03,04,10,29,10.70
2012,03,04,10,30,10.70
2012,03,04,10,31,10.70
2012,03,04,10,32,10.70
2012,03,04,10,33,10.70
2012,03,04,10,34,10.70
2012,03,04,10,35,10.70
2012,03,04,10,36,10.70
2012,03,04,10,37,10.70
2012,03,04,10,38,10.80
2012,03,04,10,39,10.80
2012,03,04,10,40,10.80
2012,03,04,10,41,10.80
2012,03,04,10,42,10.80
2012,03,04,10,43,10.80
2012,03,04,10,44,10.80
2012,03,04,10,45,10.80
2012,03,04,10,46,10.80
2012,03,04,10,47,10.80
2012,03,04,10,48,10.80
2012,03,04,10,49,10.80
2012,03,04,10,50,10.80
2012,03,04,10,51,10.80
2012,03,04,10,52,10.90
2012,03,04,10,53,10.90
2012,03,04,10,54,11.00
2012,03,04,10,55,11.00
2012,03,04,10,56,11.10
2012,03,04,10,57,11.10
2012,03,04,10,58,11.10
2012,03,04,10,59,11.20
2012,03,04,11,00,11.20
2012,03,04,11,01,11.20
2012,03,04,11,02,11.20
2012,03,04,11,03,11.10
2012,03,04,11,04,11.10
2012,03,04,11,05,11.20
2012,03,04,11,06,11.20
2012,03,04,11,07,11.20
2012,03,04,11,08,11.30
2012,03,04,11,09,11.30
2012,03,04,11,10,11.30
2012,03,04,11,11,11.30
2012,03,04,11,12,11.30
2012,03,04,11,13,11.30
2012,03,04,11,14,11.30
2012,03,04,11,15,11.40
2012,03,04,11,16,11.50
2012,03,04,11,17,11.60
2012,03,04,11,18,11.60
2012,03,04,11,19,11.60
2012,03,04,11,20,11.70
2012,03,04,11,21,11.70
2012,03,04,11,22,11.70
2012,03,04,11,23,11.60
2012,03,04,11,24,11.60
2012,03,04,11,25,11.70
2012,03,04,11,26,11.80
2012,03,04,11,27,11.90
2012,03,04,11,28,12.00
2012,03,04,11,29,12.10
2012,03,04,11,30,12.10
2012,03,04,11,31,12.00
2012,03,04,11,32,12.00
2012,03,04,11,33,11.90
2012,03,04,11,34,11.80
2012,03,04,11,35,11.80
2012,03,04,11,36,11.80
2012,03,04,11,37,11.80
2012,03,04,11,38,11.80
2012,03,04,11,39,11.80
2012,03,04,11,40,11.80
2012,03,04,11,41,11.80
2012,03,04,11,42,11.80
2012,03,04,11,43,11.90
2012,03,04,11,44,11.90
2012,03,04,11,45,12.00
2012,03,04,11,46,12.00
2012,03,04,11,47,11.90
2012,03,04,11,48,11.90
2012,03,04,11,49,12.00
2012,03,04,11,50,12.00
2012,03,04,11,51,12.10
2012,03,04,11,52,12.10
2012,03,04,11,53,12.10
2012,03,04,11,54,12.00
2012,03,04,11,55,12.10
2012,03,04,11,56,12.10
2012,03,04,11,57,12.00
2012,03,04,11,58,12.00
2012,03,04,11,59,11.90
2012,03,04,12,00,11.80
2012,03,04,12,01,11.80
2012,03,04,12,02,11.80
2012,03,04,12,03,11.80
2012,03,04,12,04,11.80
2012,03,04,12,05,11.80
2012,03,04,12,06,11.80
2012,03,04,12,07,11.80
2012,03,04,12,08,11.90
2012,03,04,12,09,11.90
2012,03,04,12,10,11.80
2012,03,04,12,11,11.80
2012,03,04,12,12,11.80
2012,03,04,12,13,11.80
2012,03,04,12,14,11.80
2012,03,04,12,15,11.80
2012,03,04,12,16,11.90
2012,03,04,12,17,11.90
2012,03,04,12,18,11.90
2012,03,04,12,19,11.90
2012,03,04,12,20,11.90
2012,03,04,12,21,11.90
2012,03,04,12,22,11.80
2012,03,04,12,23,11.80
2012,03,04,12,24,11.80
2012,03,04,12,25,11.70
2012,03,04,12,26,11.70
2012,03,04,12,27,11.70
2012,03,04,12,28,11.70
2012,03,04,12,29,11.70
2012,03,04,12,30,11.70
2012,03,04,12,31,11.70
2012,03,04,12,32,11.70
2012,03,04,12,33,11.70
2012,03,04,12,34,11.70
2012,03,04,12,35,11.70
2012,03,04,12,36,11.70
2012,03,04,12,37,11.70
2012,03,04,12,38,11.70
2012,03,04,12,39,11.70
2012,03,04,12,40,11.70
2012,03,04,12,41,11.70
2012,03,04,12,42,11.60
2012,03,04,12,43,11.60
2012,03,04,12,44,11.60
2012,03,04,12,45,11.50
2012,03,04,12,46,11.50
2012,03,04,12,47,11.50
2012,03,04,12,48,11.40
2012,03,04,12,49,11.40
2012,03,04,12,50,11.50
2012,03,04,12,51,11.50
2012,03,04,12,52,11.50
2012,03,04,12,53,11.50
2012,03,04,12,54,11.50
2012,03,04,12,55,11.40
2012,03,04,12,56,11.40
2012,03,04,12,57,11.40
2012,03,04,12,58,11.40
2012,03,04,12,59,11.50
2012,03,04,13,00,11.50
2012,03,04,13,01,11.40
2012,03,04,13,02,11.40
2012,03,04,13,03,11.30
2012,03,04,13,04,11.30
2012,03,04,13,05,11.20
2012,03,04,13,06,11.10
2012,03,04,13,07,11.10
2012,03,04,13,08,11.00
2012,03,04,13,09,11.00
2012,03,04,13,10,10.90
2012,03,04,13,11,10.90
2012,03,04,13,12,10.90
2012,03,04,13,13,10.80
2012,03,04,13,14,10.80
2012,03,04,13,15,10.80
2012,03,04,13,16,10.80
2012,03,04,13,17,10.80
2012,03,04,13,18,10.80
2012,03,04,13,19,10.70
2012,03,04,13,20,10.70
2012,03,04,13,21,10.70
2012,03,04,13,22,10.70
2012,03,04,13,23,10.70
2012,03,04,13,24,10.70
2012,03,04,13,25,10.70
2012,03,04,13,26,10.70
2012,03,04,13,27,10.70
2012,03,04,13,28,10.70
2012,03,04,13,29,10.70
2012,03,04,13,30,10.70
2012,03,04,13,31,10.70
2012,03,04,13,32,10.60
2012,03,04,13,33,10.60
2012,03,04,13,34,10.60
2012,03,04,13,35,10.60
2012,03,04,13,36,10.60
2012,03,04,13,37,10.60
2012,03,04,13,38,10.50
2012,03,04,13,39,10.50
2012,03,04,13,40,10.50
2012,03,04,13,41,10.50
2012,03,04,13,42,10.50
2012,03,04,13,43,10.50
2012,03,04,13,44,10.50
2012,03,04,13,45,10.50
2012,03,04,13,46,10.50
2012,03,04,13,47,10.50
2012,03,04,13,48,10.50
2012,03,04,13,49,10.50
2012,03,04,13,50,10.50
2012,03,04,13,51,10.50
2012,03,04,13,52,10.40
2012,03,04,13,53,10.50
2012,03,04,13,54,10.50
2012,03,04,13,55,10.50
2012,03,04,13,56,10.50
2012,03,04,13,57,10.50
2012,03,04,13,58,10.50
2012,03,04,13,59,10.50
2012,03,04,14,00,10.50
2012,03,04,14,01,10.50
2012,03,04,14,02,10.50
2012,03,04,14,03,10.50
2012,03,04,14,04,10.50
2012,03,04,14,05,10.50
2012,03,04,14,06,10.50
2012,03,04,14,07,10.50
2012,03,04,14,08,10.50
2012,03,04,14,09,10.60
2012,03,04,14,10,10.60
2012,03,04,14,11,10.60
2012,03,04,14,12,10.60
2012,03,04,14,13,10.60
2012,03,04,14,14,10.70
2012,03,04,14,15,10.70
2012,03,04,14,16,10.70
2012,03,04,14,17,10.70
2012,03,04,14,18,10.70
2012,03,04,14,19,10.70
2012,03,04,14,20,10.70
2012,03,04,14,21,10.70
2012,03,04,14,22,10.70
2012,03,04,14,23,10.60
2012,03,04,14,24,10.60
2012,03,04,14,25,10.60
2012,03,04,14,26,10.60
2012,03,04,14,27,10.60
2012,03,04,14,28,10.60
2012,03,04,14,29,10.60
2012,03,04,14,30,10.60
2012,03,04,14,31,10.60
2012,03,04,14,32,10.60
2012,03,04,14,33,10.60
2012,03,04,14,34,10.60
2012,03,04,14,35,10.60
2012,03,04,14,36,10.60
2012,03,04,14,37,10.60
2012,03,04,14,38,10.60
2012,03,04,14,39,10.60
2012,03,04,14,40,10.60
2012,03,04,14,41,10.50
2012,03,04,14,42,10.50
2012,03,04,14,43,10.50
2012,03,04,14,44,10.50
2012,03,04,14,45,10.40
2012,03,04,14,46,10.40
2012,03,04,14,47,10.40
2012,03,04,14,48,10.30
2012,03,04,14,49,10.30
2012,03,04,14,50,10.30
2012,03,04,14,51,10.30
2012,03,04,14,52,10.30
2012,03,04,14,53,10.30
2012,03,04,14,54,10.30
2012,03,04,14,55,10.30
2012,03,04,14,56,10.30
2012,03,04,14,57,10.30
2012,03,04,14,58,10.30
2012,03,04,14,59,10.30
2012,03,04,15,00,10.30
2012,03,04,15,01,10.40
2012,03,04,15,02,10.30
2012,03,04,15,03,10.30
2012,03,04,15,04,10.30
2012,03,04,15,05,10.30
2012,03,04,15,06,10.30
2012,03,04,15,07,10.30
2012,03,04,15,08,10.30
2012,03,04,15,09,10.30
2012,03,04,15,10,10.30
2012,03,04,15,11,10.30
2012,03,04,15,12,10.30
2012,03,04,15,13,10.30
2012,03,04,15,14,10.40
2012,03,04,15,15,10.40
2012,03,04,15,16,10.40
2012,03,04,15,17,10.40
2012,03,04,15,18,10.40
2012,03,04,15,19,10.40
2012,03,04,15,20,10.40
2012,03,04,15,21,10.50
2012,03,04,15,22,10.50
2012,03,04,15,23,10.40
2012,03,04,15,24,10.40
2012,03,04,15,25,10.40
2012,03,04,15,26,10.40
2012,03,04,15,27,10.40
2012,03,04,15,28,10.40
2012,03,04,15,29,10.40
2012,03,04,15,30,10.40
2012,03,04,15,31,10.50
2012,03,04,15,32,10.40
2012,03,04,15,33,10.50
2012,03,04,15,34,10.50
2012,03,04,15,35,10.50
2012,03,04,15,36,10.50
2012,03,04,15,37,10.40
2012,03,04,15,38,10.40
2012,03,04,15,39,10.40
2012,03,04,15,40,10.40
2012,03,04,15,41,10.40
2012,03,04,15,42,10.40
2012,03,04,15,43,10.40
2012,03,04,15,44,10.40
2012,03,04,15,45,10.40
2012,03,04,15,46,10.40
2012,03,04,15,47,10.40
2012,03,04,15,48,10.40
2012,03,04,15,49,10.40
2012,03,04,15,50,10.40
2012,03,04,15,51,10.40
2012,03,04,15,52,10.40
2012,03,04,15,53,10.30
2012,03,04,15,54,10.40
2012,03,04,15,55,10.40
2012,03,04,15,56,10.30
2012,03,04,15,57,10.30
2012,03,04,15,58,10.30
2012,03,04,15,59,10.30
2012,03,04,16,00,10.30
2012,03,04,16,01,10.20
2012,03,04,16,02,10.20
2012,03,04,16,03,10.20
2012,03,04,16,04,10.20
2012,03,04,16,05,10.20
2012,03,04,16,06,10.10
2012,03,04,16,07,10.10
2012,03,04,16,08,10.10
2012,03,04,16,09,10.10
2012,03,04,16,10,10.10
2012,03,04,16,11,10.00
2012,03,04,16,12,10.00
2012,03,04,16,13,10.00
2012,03,04,16,14,9.90
2012,03,04,16,15,9.90
2012,03,04,16,16,9.90
2012,03,04,16,17,9.90
2012,03,04,16,18,9.80
2012,03,04,16,19,9.80
2012,03,04,16,20,9.80
2012,03,04,16,21,9.80
2012,03,04,16,22,9.80
2012,03,04,16,23,9.80
2012,03,04,16,24,9.70
2012,03,04,16,25,9.70
2012,03,04,16,26,9.70
2012,03,04,16,27,9.70
2012,03,04,16,28,9.70
2012,03,04,16,29,9.70
2012,03,04,16,30,9.70
2012,03,04,16,31,9.70
2012,03,04,16,32,9.60
2012,03,04,16,33,9.60
2012,03,04,16,34,9.60
2012,03,04,16,35,9.60
2012,03,04,16,36,9.60
2012,03,04,16,37,9.50
2012,03,04,16,38,9.50
2012,03,04,16,39,9.40
2012,03,04,16,40,9.40
2012,03,04,16,41,9.30
2012,03,04,16,42,9.30
2012,03,04,16,43,9.30
2012,03,04,16,44,9.30
2012,03,04,16,45,9.20
2012,03,04,16,46,9.20
2012,03,04,16,47,9.20
2012,03,04,16,48,9.10
2012,03,04,16,49,9.10
2012,03,04,16,50,9.10
2012,03,04,16,51,9.10
2012,03,04,16,52,9.10
2012,03,04,16,53,9.00
2012,03,04,16,54,9.00
2012,03,04,16,55,9.00
2012,03,04,16,56,8.90
2012,03,04,16,57,9.00
2012,03,04,16,58,8.90
2012,03,04,16,59,8.90
2012,03,04,17,00,8.90
2012,03,04,17,01,8.90
2012,03,04,17,02,8.90
2012,03,04,17,03,8.80
2012,03,04,17,04,8.80
2012,03,04,17,05,8.80
2012,03,04,17,06,8.80
2012,03,04,17,07,8.80
2012,03,04,17,08,8.80
2012,03,04,17,09,8.80
2012,03,04,17,10,8.70
2012,03,04,17,11,8.70
2012,03,04,17,12,8.70
2012,03,04,17,13,8.70
2012,03,04,17,14,8.70
2012,03,04,17,15,8.70
2012,03,04,17,16,8.70
2012,03,04,17,17,8.70
2012,03,04,17,18,8.60
2012,03,04,17,19,8.60
2012,03,04,17,20,8.60
2012,03,04,17,21,8.60
2012,03,04,17,22,8.60
2012,03,04,17,23,8.60
2012,03,04,17,24,8.60
2012,03,04,17,25,8.60
2012,03,04,17,26,8.60
2012,03,04,17,27,8.50
2012,03,04,17,28,8.50
2012,03,04,17,29,8.50
2012,03,04,17,30,8.50
2012,03,04,17,31,8.50
2012,03,04,17,32,8.50
2012,03,04,17,33,8.50
2012,03,04,17,34,8.50
2012,03,04,17,35,8.40
2012,03,04,17,36,8.40
2012,03,04,17,37,8.40
2012,03,04,17,38,8.40
2012,03,04,17,39,8.40
2012,03,04,17,40,8.40
2012,03,04,17,41,8.40
2012,03,04,17,42,8.40
2012,03,04,17,43,8.40
2012,03,04,17,44,8.40
2012,03,04,17,45,8.40
2012,03,04,17,46,8.40
2012,03,04,17,47,8.30
2012,03,04,17,48,8.30